| time (UTC) | temp F | wind direction | speed MPH | gust MPH | rain 1hr in | rain 24hr in | rain mn in | humidity % | barometer mb |
| 20260904214536 | 57 | 343 | 6.0 | 15.0 | 0.00 | 0.00 | 0.00 | 90 | 1004.1 |
| 20260904213034 | 57 | 344 | 6.0 | 12.0 | 0.00 | 0.00 | 0.00 | 90 | 1004.9 |
| 20260904211534 | 57 | 342 | 4.0 | 10.0 | 0.00 | 0.00 | 0.00 | 90 | 1005.5 |
| 20260904210034 | 57 | 323 | 4.0 | 8.0 | 0.00 | 0.00 | 0.00 | 89 | 1005.8 |
| 20260904204531 | 57 | 313 | 4.0 | 11.0 | 0.00 | 0.00 | 0.00 | 89 | 1006.0 |
| 20260904203039 | 58 | 338 | 3.0 | 9.0 | 0.00 | 0.00 | 0.00 | 89 | 1005.9 |
| 20260904201531 | 58 | 324 | 3.0 | 7.0 | 0.00 | 0.00 | 0.00 | 89 | 1005.9 |
| 20260904200030 | 57 | 306 | 2.0 | 8.0 | 0.00 | 0.00 | 0.00 | 89 | 1005.3 |
| 20260904194529 | 57 | 360 | 1.0 | 7.0 | 0.00 | 0.00 | 0.00 | 89 | 1005.8 |
| 20260904193030 | 57 | 351 | 4.0 | 8.0 | 0.00 | 0.00 | 0.00 | 88 | 1006.3 |
| 20260904191527 | 58 | 342 | 3.0 | 13.0 | 0.00 | 0.00 | 0.00 | 88 | 1006.4 |
| 20260904190027 | 58 | 340 | 9.0 | 19.0 | 0.00 | 0.00 | 0.00 | 89 | 1006.1 |
| 20260904184525 | 58 | 325 | 10.0 | 23.0 | 0.00 | 0.00 | 0.00 | 89 | 1006.6 |
| 20260904183025 | 58 | 313 | 8.0 | 14.0 | 0.00 | 0.00 | 0.00 | 89 | 1006.7 |
| 20260904181524 | 57 | 328 | 7.0 | 16.0 | 0.00 | 0.00 | 0.00 | 90 | 1005.7 |
| 20260904180022 | 57 | 22 | 6.0 | 18.0 | 0.00 | 0.00 | 0.00 | 90 | 1005.7 |
| 20260904174520 | 58 | 360 | 1.0 | 7.0 | 0.00 | 0.00 | 0.00 | 90 | 1005.9 |
| 20260904173020 | 58 | 360 | 2.0 | 15.0 | 0.00 | 0.00 | 0.00 | 90 | 1006.5 |
| 20260904171517 | 57 | 340 | 2.0 | 12.0 | 0.00 | 0.00 | 0.00 | 90 | 1006.7 |
| 20260904170016 | 57 | 344 | 6.0 | 16.0 | 0.00 | 0.00 | 0.00 | 90 | 1007.3 |
| 20260904164514 | 57 | 5 | 7.0 | 22.0 | 0.00 | 0.00 | 0.00 | 89 | 1007.3 |
| 20260904163011 | 58 | 324 | 6.0 | 23.0 | 0.00 | 0.00 | 0.00 | 89 | 1007.9 |
| 20260904161508 | 58 | 40 | 4.0 | 14.0 | 0.00 | 0.00 | 0.00 | 88 | 1008.7 |
| 20260904160015 | 58 | 323 | 6.0 | 13.0 | 0.00 | 0.00 | 0.00 | 88 | 1009.1 |
| 20260904154505 | 57 | 313 | 6.0 | 12.0 | 0.00 | 0.00 | 0.00 | 88 | 1008.9 |
| 20260904153002 | 57 | 327 | 3.0 | 14.0 | 0.00 | 0.00 | 0.00 | 88 | 1009.6 |
| 20260904151501 | 57 | 309 | 3.0 | 8.0 | 0.00 | 0.00 | 0.00 | 88 | 1009.7 |
| 20260904150104 | 57 | 315 | 2.0 | 9.0 | 0.00 | 0.00 | 0.00 | 87 | 1009.8 |
| 20260904144601 | 58 | 335 | 6.0 | 12.0 | 0.00 | 0.00 | 0.00 | 86 | 1010.1 |
| 20260904143054 | 58 | 333 | 8.0 | 14.0 | 0.00 | 0.00 | 0.00 | 84 | 1010.4 |
| 20260904141554 | 59 | 313 | 7.0 | 13.0 | 0.00 | 0.00 | 0.00 | 81 | 1010.7 |
| 20260904140101 | 61 | 316 | 5.0 | 11.0 | 0.00 | 0.00 | 0.00 | 77 | 1010.8 |
| 20260904134550 | 61 | 322 | 3.0 | 11.0 | 0.00 | 0.00 | 0.00 | 74 | 1010.7 |
| 20260904133052 | 60 | 293 | 4.0 | 17.0 | 0.00 | 0.00 | 0.00 | 75 | 1010.8 |
| 20260904131547 | 60 | 319 | 4.0 | 11.0 | 0.00 | 0.00 | 0.00 | 77 | 1010.9 |
| 20260904130051 | 60 | 355 | 5.0 | 11.0 | 0.00 | 0.00 | 0.00 | 77 | 1010.9 |
| 20260904124550 | 60 | 28 | 7.0 | 15.0 | 0.00 | 0.00 | 0.00 | 75 | 1011.1 |
| 20260904123043 | 60 | 323 | 7.0 | 17.0 | 0.00 | 0.00 | 0.00 | 74 | 1011.4 |
| 20260904121540 | 60 | 318 | 5.0 | 17.0 | 0.00 | 0.00 | 0.00 | 73 | 1011.9 |
| 20260904120037 | 60 | 333 | 6.0 | 16.0 | 0.00 | 0.00 | 0.00 | 73 | 1012.3 |
| 20260904114538 | 60 | 329 | 6.0 | 14.0 | 0.00 | 0.00 | 0.00 | 74 | 1012.8 |
| 20260904113036 | 59 | 331 | 6.0 | 18.0 | 0.00 | 0.00 | 0.00 | 75 | 1012.8 |
| 20260904111539 | 59 | 311 | 5.0 | 12.0 | 0.00 | 0.00 | 0.00 | 73 | 1013.0 |
| 20260904110032 | 59 | 310 | 2.0 | 9.0 | 0.00 | 0.00 | 0.00 | 73 | 1013.3 |
| 20260904104535 | 58 | 337 | 1.0 | 8.0 | 0.00 | 0.00 | 0.00 | 73 | 1013.3 |
| 20260904103031 | 58 | 317 | 2.0 | 5.0 | 0.00 | 0.00 | 0.00 | 74 | 1013.4 |
| 20260904101530 | 57 | 287 | 0.0 | 5.0 | 0.00 | 0.00 | 0.00 | 73 | 1013.5 |
| 20260904100029 | 57 | 302 | 0.0 | 0.0 | 0.00 | 0.00 | 0.00 | 72 | 1013.7 |
| 20260904094529 | 57 | 302 | 0.0 | 3.0 | 0.00 | 0.00 | 0.00 | 69 | 1013.6 |
| 20260904093029 | 57 | 296 | 1.0 | 5.0 | 0.00 | 0.00 | 0.00 | 69 | 1013.7 |
| 20260904091528 | 57 | 319 | 0.0 | 5.0 | 0.00 | 0.00 | 0.00 | 68 | 1013.8 |
| 20260904090033 | 58 | 9 | 2.0 | 5.0 | 0.00 | 0.00 | 0.00 | 67 | 1013.8 |
| 20260904084526 | 58 | 360 | 1.0 | 6.0 | 0.00 | 0.00 | 0.00 | 66 | 1014.0 |
| 20260904083024 | 59 | 315 | 2.0 | 7.0 | 0.00 | 0.00 | 0.00 | 65 | 1014.1 |
| 20260904081523 | 59 | 333 | 4.0 | 9.0 | 0.00 | 0.00 | 0.00 | 64 | 1014.1 |
| 20260904080022 | 60 | 355 | 3.0 | 13.0 | 0.00 | 0.00 | 0.00 | 64 | 1014.3 |
| 20260904074532 | 60 | 326 | 4.0 | 10.0 | 0.00 | 0.00 | 0.00 | 63 | 1014.6 |
| 20260904073024 | 61 | 325 | 4.0 | 11.0 | 0.00 | 0.00 | 0.00 | 63 | 1014.5 |
| 20260904071520 | 61 | 319 | 5.0 | 10.0 | 0.00 | 0.00 | 0.00 | 62 | 1014.4 |
| 20260904070020 | 61 | 328 | 7.0 | 12.0 | 0.00 | 0.00 | 0.00 | 61 | 1014.4 |
| 20260904064519 | 61 | 5 | 7.0 | 16.0 | 0.00 | 0.00 | 0.00 | 61 | 1014.6 |
| 20260904063022 | 61 | 305 | 10.0 | 22.0 | 0.00 | 0.00 | 0.00 | 60 | 1014.8 |
| 20260904061525 | 62 | 326 | 8.0 | 14.0 | 0.00 | 0.00 | 0.00 | 59 | 1015.1 |
| 20260904060020 | 62 | 331 | 7.0 | 19.0 | 0.00 | 0.00 | 0.00 | 58 | 1015.2 |
| 20260904054516 | 63 | 305 | 8.0 | 15.0 | 0.00 | 0.00 | 0.00 | 58 | 1015.3 |
| 20260904053022 | 63 | 311 | 6.0 | 14.0 | 0.00 | 0.00 | 0.00 | 59 | 1015.5 |
| 20260904051526 | 62 | 331 | 7.0 | 15.0 | 0.00 | 0.00 | 0.00 | 59 | 1015.4 |
| 20260904050011 | 63 | 309 | 8.0 | 17.0 | 0.00 | 0.00 | 0.00 | 58 | 1015.7 |
| 20260904044510 | 63 | 296 | 7.0 | 12.0 | 0.00 | 0.00 | 0.00 | 58 | 1015.8 |
| 20260904043009 | 64 | 346 | 8.0 | 18.0 | 0.00 | 0.00 | 0.00 | 56 | 1015.8 |
| 20260904041510 | 64 | 321 | 8.0 | 18.0 | 0.00 | 0.00 | 0.00 | 55 | 1015.8 |
| 20260904040015 | 64 | 335 | 6.0 | 15.0 | 0.00 | 0.00 | 0.00 | 54 | 1015.8 |
| 20260904034506 | 64 | 341 | 8.0 | 17.0 | 0.00 | 0.00 | 0.00 | 53 | 1016.2 |
| 20260904033002 | 63 | 300 | 9.0 | 18.0 | 0.00 | 0.00 | 0.00 | 52 | 1016.3 |
| 20260904031600 | 63 | 308 | 7.0 | 16.0 | 0.00 | 0.00 | 0.00 | 53 | 1016.7 |
| 20260904030057 | 63 | 312 | 9.0 | 16.0 | 0.00 | 0.00 | 0.00 | 53 | 1016.9 |
| 20260904024555 | 62 | 292 | 7.0 | 17.0 | 0.00 | 0.00 | 0.00 | 52 | 1017.0 |
| 20260904021552 | 62 | 355 | 7.0 | 16.0 | 0.00 | 0.00 | 0.00 | 52 | 1017.4 |
| 20260904020051 | 63 | 275 | 5.0 | 15.0 | 0.00 | 0.00 | 0.00 | 51 | 1017.7 |
| 20260904014602 | 62 | 302 | 6.0 | 14.0 | 0.00 | 0.00 | 0.00 | 52 | 1017.9 |
| 20260904011543 | 61 | 323 | 9.0 | 16.0 | 0.00 | 0.00 | 0.00 | 52 | 1018.6 |
| 20260904010050 | 61 | 314 | 8.0 | 14.0 | 0.00 | 0.00 | 0.00 | 52 | 1019.0 |
| 20260904004538 | 60 | 251 | 8.0 | 19.0 | 0.00 | 0.00 | 0.00 | 53 | 1019.2 |
| 20260904001540 | 59 | 303 | 7.0 | 16.0 | 0.00 | 0.00 | 0.00 | 56 | 1019.4 |
| 20260904000043 | 58 | 292 | 6.0 | 15.0 | 0.00 | 0.00 | 0.00 | 57 | 1019.4 |
| 20260903234530 | 57 | 294 | 8.0 | 16.0 | 0.00 | 0.00 | 0.00 | 57 | 1020.0 |
| 20260903231526 | 56 | 266 | 7.0 | 13.0 | 0.00 | 0.00 | 0.00 | 60 | 1020.0 |
| 20260903230024 | 55 | 328 | 6.0 | 14.0 | 0.00 | 0.00 | 0.00 | 62 | 1020.1 |
| 20260903224518 | 54 | 308 | 4.0 | 10.0 | 0.00 | 0.00 | 0.00 | 65 | 1020.1 |
| 20260903221512 | 49 | 313 | 0.0 | 3.0 | 0.00 | 0.00 | 0.00 | 76 | 1019.6 |
| 20260903220011 | 48 | 323 | 2.0 | 7.0 | 0.00 | 0.00 | 0.00 | 77 | 1019.6 |